Location: Göttingen
(51.5413°N, 9.9158°E)
Time: 16:41:32
(UTC+02:00)

EO-88 - Pass Details

Date: 04 July 2022
Orbit: 453 x 461 km, 97.3° (Epoch: 14 August)

Event Time Altitude Azimuth Distance (km) Brightness Sun altitude
Exits shadow 22:20:02 - 155° (SSE) 1,952 ? -5.3°
Reaches altitude 10° 22:20:49 10° 153° (SSE) 1,624 ? -5.4°
Maximum altitude 22:24:15 60° 73° (ENE) 542 ? -5.8°
Drops below altitude 10° 22:27:43 10° 353° (N) 1,634 ? -6.1°
Sets 22:29:47 0° 350° (N) 2,513 ? -6.3°
